Regional Weather Roundup
Issued by NWS Green Bay, WI

Home | Current Version | Previous Version | Text Only | Print | Product List | Glossary On
Versions: 1 2 3 4 5 6 7 8 9 10 11 12 13 14 15 16 17 18 19 20 21 22 23 24 25 26 27 28 29 30 31 32 33 34 35 36 37 38 39 40 41 42 43 44 45 46 47 48 49 50
000
ASUS43 KGRB 172010
RWRGRB

NORTH-CENTRAL AND NORTHEAST WISCONSIN REGIONAL WEATHER ROUNDUP
NATIONAL WEATHER SERVICE GREEN BAY WI
200 PM CST WED DEC 17 2014

WIZ005-009-010>012-018-019-172100-
NORTH CENTRAL WISCONSIN

CITY           SKY/WX    TMP DP  RH WIND       PRES   REMARKS
IRONWOOD       CLOUDY    23  19  86 N7        30.16S
MANITOWISH WTR CLOUDY    19  16  89 NW10      30.14S WCI   7
ARBOR VITAE    FLURRIES  22  17  82 NW8       30.14S
EAGLE RIVER    LGT SNOW  21  16  80 NW8       30.11S
LAND O LAKES   CLOUDY    24  20  85 N7        30.12R
RHINELANDER    CLOUDY    20  13  74 NW7       30.13S
PHILLIPS       FLURRIES  19  12  74 NW6       30.17S
ANTIGO         CLOUDY    22  14  73 NW12      30.13R
TOMAHAWK       CLOUDY    22  14  72 W5        30.16S
MERRILL        CLOUDY    23  13  65 N9        30.16R
$$

WIZ013-073-172100-
NORTHEAST WISCONSIN

CITY           SKY/WX    TMP DP  RH WIND       PRES   REMARKS
IRON MOUNTAIN  MIX PCPN  26  18  71 NW14      30.08R
MARINETTE      CLOUDY    27  16  63 NW7G16    30.10S
OCONTO         MOSUNNY   26  16  66 W13G20    30.13S
$$

WIZ017-030-035>037-045-172100-
CENTRAL WISCONSIN

CITY           SKY/WX    TMP DP  RH WIND       PRES   REMARKS
MEDFORD        MOSUNNY   19  10  68 W9        30.18S WCI   7
WAUSAU         MOSUNNY   22  12  65 NW10      30.16S
MOSINEE        MOSUNNY   21  16  79 W14       30.18S WCI   8
MARSHFIELD     MOSUNNY   20  13  74 W14       30.20R WCI   7
WISC RAPIDS    CLOUDY    21  12  68 NW16      30.22R WCI   7
STEVENS POINT  PTSUNNY   20  11  65 W8G17     30.18S
WAUPACA        MOSUNNY   28  14  57 W10G17    30.18S
SHAWANO        SUNNY     28  15  59 W12       30.16S
CLINTONVILLE   SUNNY     27  14  59 NW12      30.16S
$$

WIZ038-039-048-051-172100-
FOX VALLEY

CITY           SKY/WX    TMP DP  RH WIND       PRES   REMARKS
NWS GREEN BAY  PTSUNNY   26  17  68 W16       30.15S
APPLETON       MOSUNNY   25  12  58 W17       30.16S
OSHKOSH        MOSUNNY   24  14  65 NW16      30.17S
FOND DU LAC    CLOUDY    25  16  68 W15       30.18R
$$

WIZ022-050-052-172100-
EAST CENTRAL WISCONSIN

CITY           SKY/WX    TMP DP  RH WIND       PRES   REMARKS
STURGEON BAY   CLOUDY    25  16  68 NW15      30.12S
MANITOWOC      CLOUDY    27  18  69 NW17      30.15R
SHEBOYGAN      PTSUNNY   25  15  66 W16G24    30.16S
$$

LMZ563-521-522-541>543-172100-
LAKESHORE

STATION/POSITION TIME  TEMP    WIND        PRES    VSBY  WAVE
                       AIR SEA DIR/SP/G                  HT/PER
                 (UTC) (F)     (DEG/KT/KT) (MB)    (MI)  (FT/S)
SHEBOYGAN LKSHOR 2000   25 35  280/ 12/ 16 1022.4S
KEWAUNEE LKSHORE 2000   24     300/ 12/ 16 1019.3S
ALGOMA MARINA    1900          310/ 11/ 14   N/A
TWO RIVERS CG    2000   26                 1020.9      6   0
NORTHPORT PIER   2000   27     300/ 10/ 22 1018.3S
SISTER BAY LKSHO 2000          310/ 21/ 25   N/A
STURGEON BAY CG  1900   25     310/ 10     1019.5          1
CHAMBERS ISLAND  2000   26     250/  7/ 15 1019.3S
MENOMINEE LKSHOR 2000   26     270/ 11/ 14 1020.1R
$$



USA.gov is the U.S. government's official web portal to all federal, state and local government web resources and services.